Regional Weather Roundup
Issued by NWS

Home | Current Version | Previous Version | Text Only | Print | Product List | Glossary On
Versions: 1 2 3 4 5 6 7 8 9 10 11 12 13 14 15 16 17 18 19 20 21 22 23 24 25 26 27 28 29 30 31 32 33 34 35 36 37 38 39 40 41 42 43 44 45 46 47 48 49 50
000
ASUS43 KLSX 290407
RWRMO

WEATHER SUMMARY FOR MISSOURI
NATIONAL WEATHER SERVICE SPRINGFIELD MO
1100 PM CDT MON JUL 28 2014

NOTE: "FAIR" INDICATES FEW OR NO CLOUDS BELOW 12,000 FEET WITH NO
       SIGNIFICANT WEATHER AND/OR OBSTRUCTIONS TO VISIBILITY.
       CURRENT SKY AND/OR WEATHER CONDITIONS ARE NOT AVAILABLE FOR
       CHILLICOTHE AND FARMINGTON.

MOZ001>031-035>038-043-044-053-054-290500-
...NORTHERN AND WESTERN MISSOURI...

CITY           SKY/WX    TMP DP  RH WIND       PRES   REMARKS
KANSAS CTY INT PTCLDY    66  59  78 NW6       30.18R
KANSAS C DTWN  CLEAR     71  60  68 NW3       30.16S
LEE`S SUMMIT   CLEAR     68  58  70 CALM      30.18R
ST JOSEPH      CLEAR     64  59  83 CALM      30.17S
CHILLICOTHE      N/A     68  61  78 CALM      30.16S
KIRKSVILLE     MOCLDY    60  57  89 CALM      30.16F

$$
MOZ066>068-077>081-088>096-101>105-290500-
...SOUTHWEST MISSOURI...

CITY           SKY/WX    TMP DP  RH WIND       PRES   REMARKS
SPRINGFIELD    CLEAR     69  58  67 N6        30.15S
JOPLIN         CLEAR     67  59  75 NE3       30.16R

$$
MOZ032>034-039>042-045>050-055>058-069>072-290500-
...CENTRAL MISSOURI...

CITY           SKY/WX    TMP DP  RH WIND       PRES   REMARKS
COLUMBIA       CLEAR     61  55  81 NE7       30.15F
JEFFERSON CITY CLEAR     65  55  70 CALM      30.15R
ROLLA            N/A     61  52  72 CALM      30.14S
SEDALIA        CLEAR     67  57  70 CALM      30.16S
WHITEMAN AFB   CLEAR     64  50  59 SW2       30.16R
OSAGE BEACH    CLEAR     63  54  72 CALM      30.16R

$$
MOZ051-052-059>065-290500-
...EAST CENTRAL MISSOURI...

CITY           SKY/WX    TMP DP  RH WIND       PRES   REMARKS
ST LOUIS INTL  CLEAR     66  54  65 NW5       30.13
SPIRIT OF STL  CLEAR     58  54  86 CALM      30.12S
ST CHARLES     CLEAR     60  55  83 NW5       30.12S

$$
MOZ072>076-082>087-097>100-106>115-290500-
...SOUTH CENTRAL AND SOUTHEAST MISSOURI...

CITY           SKY/WX    TMP DP  RH WIND       PRES   REMARKS
CAPE GIRARDEAU CLEAR     67  58  72 N6        30.10R
FARMINGTON     CLEAR     63  54  72 NW3       30.15S
POPLAR BLUFF   MOCLDY    71  59  65 NE7       30.09R
WEST PLAINS    CLEAR     67  57  70 N7        30.16R

$$



USA.gov is the U.S. government's official web portal to all federal, state and local government web resources and services.